Terminal Aerodrome Forecast
Issued by NWS St Louis, MO

Home | Current Version | Previous Version | Text Only | Print | Product List | Glossary On
Versions: 1 2 3 4 5 6 7 8 9 10 11 12 13 14 15 16 17 18 19
000
FTUS43 KLSX 140500
TAFCOU
TAF
KCOU 140520Z 1406/1506 10005KT P6SM BKN250
     FM140800 13006KT P6SM SCT080
     FM141700 17006KT P6SM SCT050
     FM150100 14005KT P6SM BKN150=

USA.gov is the U.S. government's official web portal to all federal, state and local government web resources and services.